SCP
0 0 0 0 0 0 0 0 0 0 0 0 0 0 0 0 0 0 0 0 0 0 0 0 1 1 1 1 1 1 1 1 0 0 0 0 1 0 0 0 0 0 0 0 0 0 0 0 0
0 0 0 0 0 0 0 0 0 0 0 0 0 0 0 0 0 0 0 0 0 0 0 0 1 1 1 1 1 1 1 0 0 0 0 0 0 0 0 0 0 0 0 0 0 0 0 0 0
0 0 0 0 0 0 0 0 0 0 0 0 0 0 0 0 0 0 0 0 0 0 0 0 1 1 1 1 1 1 1 0 0 0 0 0 0 0 0 0 0 0 0 0 0 0 0 0 0
0 0 0 0 0 0 0 0 0 0 0 0 0 0 0 0 0 0 0 0 0 0 0 0 1 1 1 1 1 1 0 0 0 0 0 0 0 0 0 0 0 0 0 0 0 0 0 0 0
0 0 0 0 0 0 0 0 0 0 0 0 0 0 0 0 0 0 0 0 0 0 0 0 1 1 1 1 1 1 0 0 0 0 0 0 0 0 0 0 0 0 0 0 0 0 0 0 0
0 0 0 0 0 0 0 0 0 0 0 0 0 0 0 0 1 0 0 0 0 0 0 0 1 1 1 1 1 1 0 0 0 0 0 0 0 0 0 0 0 0 0 0 0 0 0 0 0
0 0 0 0 0 0 0 0 0 0 0 0 0 0 0 0 0 0 0 0 0 0 0 0 0 0 1 0 0 0 0 0 0 0 0 0 0 0 0 0 0 0 0 0 0 0 0 0 0
0 0 0 0 0 0 0 0 0 0 0 0 0 0 0 0 0 0 0 0 0 0 0 0 0 0 0 0 0 0 0 0 0 0 0 0 0 0 0 0 0 0 0 0 0 0 0 0 0
0 0 0 0 0 0 0 0 0 0 0 0 0 0 0 0 0 0 0 0 0 0 0 0 0 0 0 0 0 0 0 0 0 0 0 0 0 0 0 0 0 0 0 0 0 0 0 0 0
0 0 0 0 0 0 0 0 0 0 0 0 0 0 0 0 0 0 0 0 0 0 0 0 0 0 0 0 0 0 0 0 0 0 0 0 0 0 0 0 0 0 0 0 0 0 0 0 0
0 0 0 0 0 0 0 0 0 0 0 0 0 0 0 0 0 0 0 0 0 0 0 0 0 0 0 0 0 0 0 0 0 0 0 0 0 0 0 0 0 0 0 0 0 0 0 0 0
0 0 0 0 0 0 0 0 0 0 0 0 0 0 0 0 0 0 0 0 0 0 0 0 0 0 0 0 0 0 0 0 0 0 0 0 0 0 0 0 0 0 0 0 0 0 0 0 0
0 0 0 0 0 0 0 0 0 0 0 0 0 0 0 0 0 0 0 0 0 0 0 0 0 0 0 0 0 0 0 0 0 0 0 0 0 0 0 0 0 0 0 0 0 0 0 0 0
0 0 0 0 0 0 0 0 0 0 0 0 0 0 0 0 0 0 0 0 0 0 0 0 0 0 0 0 0 0 0 0 0 0 0 0 0 0 0 0 0 0 0 0 0 0 0 0 0
0 0 0 0 0 0 0 0 0 0 0 0 0 0 0 0 0 0 0 0 0 0 0 0 0 0 0 0 0 0 0 0 0 0 0 0 0 0 0 0 0 0 0 0 0 0 0 0 0
0 0 0 0 0 0 0 0 0 0 0 0 0 0 0 0 0 0 1 1 1 1 0 0 0 0 0 0 0 0 0 0 0 0 0 0 0 0 0 0 0 0 0 0 0 0 0 0 0
0 0 0 0 0 0 0 0 0 0 0 0 0 0 0 0 1 1 1 1 1 1 0 0 0 0 0 0 0 0 0 0 0 0 0 0 0 0 0 0 0 0 0 0 0 0 0 0 0
0 0 0 0 0 0 0 0 0 0 0 0 0 0 1 1 1 1 1 1 1 1 0 0 0 0 0 0 0 0 0 0 0 0 0 0 0 0 0 0 0 0 0 0 0 0 0 0 0
0 0 0 0 0 0 0 0 0 0 0 0 0 1 1 1 1 1 1 1 1 1 1 1 1 1 1 1 1 0 0 0 0 0 0 0 0 0 0 0 0 0 0 0 0 0 0 0 0
0 0 0 0 0 0 0 0 0 0 0 0 1 1 1 1 1 1 1 1 1 1 1 1 1 1 1 1 1 0 0 0 0 0 0 0 0 0 0 0 0 0 0 0 0 0 0 0 0
0 0 0 0 0 0 0 0 0 0 0 0 0 1 1 1 1 1 1 1 0 0 0 1 1 1 1 0 0 0 0 0 0 0 0 0 0 0 0 0 0 0 0 0 0 0 0 0 0
0 0 0 0 0 0 0 0 0 0 0 0 0 1 1 1 1 1 1 0 0 0 0 1 1 0 0 0 0 0 0 0 0 0 0 0 0 0 0 0 0 0 0 0 0 0 0 0 0
0 0 0 0 0 0 0 0 0 0 0 0 0 1 1 0 1 1 1 0 0 0 1 1 1 0 0 0 0 0 0 0 0 0 0 0 0 0 0 0 0 0 0 0 0 0 0 0 0
0 0 0 0 0 0 0 0 0 0 0 0 0 0 0 0 0 0 1 1 1 0 1 0 0 0 0 0 0 0 0 0 0 0 0 0 0 0 0 0 0 0 0 0 0 0 0 0 0
0 0 0 0 0 0 0 0 0 0 0 0 0 0 0 0 0 0 1 1 1 1 0 0 0 0 0 0 0 0 0 0 0 0 0 0 0 0 0 0 0 0 0 0 0 0 0 0 0
0 0 0 0 0 0 0 0 0 0 0 0 0 0 0 0 0 0 1 1 1 0 0 0 0 0 0 0 0 0 0 0 0 0 0 0 0 0 0 0 0 0 0 0 0 0 0 0 0
0 0 0 0 0 0 0 0 0 0 0 0 0 0 0 0 0 1 1 0 0 0 0 0 0 0 0 0 0 0 0 0 0 0 0 0 0 0 0 0 0 0 0 0 0 0 0 0 0
0 0 0 0 0 0 0 0 0 0 0 0 0 0 0 0 0 0 0 0 0 0 0 0 0 0 0 0 0 0 0 0 0 0 0 0 0 0 0 0 0 0 0 0 0 0 0 0 0
0 0 0 -0 -0 0 0 0 0 0 0 0 0 0 0 0 0 0 0 0 0 0 0 0 0 0 0 0 0 0 0 0 0 0 0 0 0 0 0 0 0 0 0 0 0 0 0 0 0
0 0 0 -0 -0 -0 0 0 0 0 0 0 0 0 0 0 0 0 0 0 0 0 0 0 0 0 0 0 0 0 0 0 0 0 0 0 0 0 0 0 0 0 0 0 0 0 0 0 0
Wind_Speed
4 3 2 2 4 4 2 3 2 1 1 3 6 9 9 6 4 4 2 7 12 11 8 10 12 13 12 12 11 11 11 11 11 11 11 10 11 11 11 11 11 10 10 10 9 9 8 7 7
2 3 2 4 5 2 3 3 1 2 4 5 7 9 9 7 6 8 5 8 12 10 7 9 12 13 12 12 11 11 11 11 10 10 10 10 10 10 10 10 10 9 9 8 8 8 7 7 6
2 2 3 4 2 3 4 3 2 1 2 3 4 6 6 6 6 6 7 12 10 8 7 9 13 13 12 11 11 11 10 10 10 10 9 9 9 9 9 9 9 8 8 7 7 7 6 6 5
1 3 3 3 2 5 4 5 3 1 3 4 6 6 5 4 5 8 12 12 11 8 7 8 11 12 11 11 11 10 10 10 9 9 9 9 9 8 8 8 8 8 7 7 6 6 6 5 5
3 3 3 2 4 4 3 4 2 1 3 4 7 7 4 3 9 13 12 12 11 8 6 7 10 11 11 10 9 10 9 9 9 9 9 8 8 8 8 8 8 8 7 7 6 5 5 5 5
3 3 2 2 4 4 3 2 2 3 4 4 7 6 3 4 10 11 11 9 10 9 7 6 10 10 10 9 8 8 8 8 9 8 8 8 8 8 8 8 8 7 7 6 6 5 5 5 5
3 2 2 3 3 3 3 1 4 5 5 3 5 6 3 4 8 10 10 9 8 8 7 5 5 6 8 7 7 8 8 8 8 8 8 8 8 8 7 7 8 8 7 7 6 5 5 5 5
5 3 1 2 2 5 3 2 3 5 4 4 6 7 5 6 8 9 9 8 8 7 6 6 5 4 4 4 6 7 7 7 7 7 8 8 8 8 8 7 7 8 8 8 7 7 6 6 6
3 3 3 4 3 4 1 2 2 3 6 4 4 5 8 10 10 10 8 7 6 6 4 5 4 4 3 3 5 5 6 6 6 5 6 6 3 4 4 6 8 8 8 8 8 7 7 7 6
4 4 8 6 5 3 1 2 4 4 5 5 6 6 9 10 11 11 10 8 7 6 5 4 5 4 3 3 3 2 2 3 3 2 3 3 3 3 4 5 8 8 8 8 7 7 7 5 2
4 7 7 6 6 4 3 2 2 7 4 7 10 10 10 10 10 10 9 8 7 7 5 4 4 4 4 2 2 1 1 2 2 2 3 2 2 2 2 2 3 3 4 3 4 4 2 2 2
3 6 6 6 5 3 3 3 3 4 6 9 12 12 10 10 10 9 9 8 7 6 5 4 4 4 3 3 3 2 2 1 1 2 2 2 1 1 1 1 2 2 2 2 2 2 3 3 4
3 4 5 4 1 3 4 4 5 3 6 9 12 12 10 10 8 7 8 7 7 6 5 4 5 4 4 3 2 3 2 2 2 2 2 3 2 2 2 2 2 2 2 2 2 2 2 2 3
4 4 6 4 2 2 5 2 4 4 8 11 11 10 9 9 8 7 7 7 7 6 5 4 5 5 4 3 3 2 2 2 2 2 3 3 2 2 2 2 2 2 2 2 3 3 3 2 2
2 4 6 4 2 3 6 3 2 6 9 10 10 9 9 7 7 8 8 7 7 7 6 5 5 5 4 4 4 3 2 2 2 2 2 3 2 2 2 2 2 2 2 3 2 2 2 2 2
3 2 3 7 2 2 7 3 4 6 10 8 7 7 6 5 5 6 7 6 6 6 5 5 5 5 4 3 3 2 2 2 2 2 2 2 2 3 2 2 2 2 2 2 2 2 1 1 1
3 2 5 7 3 2 5 4 5 6 8 7 6 6 6 4 3 4 5 6 5 6 5 5 4 4 3 3 2 2 2 2 2 1 1 1 2 2 2 2 2 2 2 2 2 2 2 2 2
5 4 4 5 3 2 3 3 4 5 8 7 6 6 6 6 4 5 5 5 5 4 5 5 4 4 3 2 2 1 1 1 1 1 1 2 1 1 1 1 1 1 1 1 1 2 2 2 2
5 4 5 5 2 2 3 3 4 6 6 7 6 5 6 6 4 5 5 4 5 4 4 4 4 3 2 2 1 1 1 1 1 1 2 2 2 2 2 1 1 1 2 2 3 2 2 2 1
4 4 4 4 2 2 3 2 3 4 6 8 8 8 8 6 5 4 4 3 4 4 4 3 4 3 2 2 2 2 2 1 1 1 1 1 2 2 1 2 2 2 1 1 2 2 2 2 2
5 5 5 4 2 1 3 2 2 2 2 3 5 6 8 9 9 6 5 4 4 4 4 3 3 3 2 1 1 1 1 1 1 1 1 1 2 2 1 2 2 2 2 2 3 3 3 3 2
6 7 5 4 2 3 3 2 5 3 1 2 3 4 6 7 7 6 5 4 5 4 4 3 3 2 1 2 2 2 1 1 2 1 1 1 1 2 2 2 2 2 2 2 3 3 3 3 2
7 5 4 4 2 1 2 3 4 2 2 4 4 5 5 6 7 7 6 6 5 4 3 3 2 2 1 1 2 2 1 1 1 1 1 1 2 2 2 2 1 2 2 2 2 2 3 3 3
3 2 4 3 3 1 4 3 4 4 5 4 5 5 5 5 5 6 5 5 4 3 3 2 3 2 2 2 2 2 2 2 1 1 1 2 2 2 2 2 2 2 2 2 3 3 3 4 4
3 5 3 5 3 4 2 3 5 5 5 7 7 7 6 5 5 6 6 5 5 4 3 2 3 3 3 2 3 3 3 3 3 3 3 2 2 2 3 3 2 2 3 3 2 2 3 4 4
2 7 6 4 4 4 2 2 4 2 2 3 4 5 5 4 4 5 6 5 5 4 3 2 2 3 3 3 2 2 2 2 2 3 3 3 2 3 3 3 3 3 3 3 2 2 3 3 4
2 2 6 6 2 0 2 1 2 1 2 2 3 3 4 4 4 4 4 4 3 3 3 4 3 2 2 2 2 1 2 2 3 3 3 2 2 3 3 3 3 3 3 3 3 3 3 3 4
5 5 4 4 3 2 3 3 5 5 3 3 3 3 3 3 4 4 3 3 2 2 2 3 3 3 2 2 2 2 2 3 3 2 3 3 3 3 3 3 3 3 4 4 3 3 3 4 4
1 2 3 3 5 5 3 6 6 9 7 6 4 5 4 3 4 4 3 3 2 1 2 2 2 2 2 2 2 2 2 2 2 2 3 3 3 3 3 3 3 3 3 3 3 3 3 4 4
4 5 6 4 3 4 4 7 2 7 6 6 5 5 5 5 4 4 3 3 2 1 1 1 1 2 2 2 2 1 1 2 2 3 4 4 3 3 3 3 3 3 3 3 3 4 4 4 5
Wind_Direction
177 167 127 66 52 47 310 271 220 320 29 50 89 94 95 80 109 138 153 132 134 140 147 141 136 134 133 133 133 132 130 127 124 122 121 120 123 126 127 129 130 132 132 133 133 133 133 132 131
180 168 71 59 73 31 290 265 230 180 150 108 77 82 81 70 81 108 114 135 134 136 140 142 140 138 137 136 137 137 136 135 131 130 129 129 129 131 135 136 137 137 137 138 139 140 140 141 141
206 158 88 74 100 195 237 247 235 210 121 110 84 61 76 102 105 124 146 142 134 133 136 141 141 139 139 139 140 142 143 143 142 142 140 139 138 138 142 143 144 143 143 145 149 149 147 149 151
100 59 50 59 282 244 224 245 254 242 65 70 99 74 71 94 129 137 137 137 132 132 133 144 143 141 140 141 144 145 149 149 151 152 152 150 148 149 150 152 152 152 154 156 158 161 161 165 168
73 77 52 344 282 270 257 239 196 120 104 87 93 95 71 50 114 129 135 137 134 132 130 142 141 140 140 142 145 148 152 155 158 161 161 158 158 160 162 162 164 165 165 167 171 170 174 181 183
57 72 77 270 275 294 282 219 140 84 91 91 100 111 99 112 124 136 136 136 134 135 135 139 138 136 139 143 149 152 156 162 165 168 168 168 170 172 174 173 176 179 179 180 184 184 184 193 200
130 115 213 235 282 300 279 53 101 117 108 99 118 102 117 130 134 133 130 128 125 129 131 134 139 139 142 144 149 155 157 162 165 171 174 177 180 184 185 184 186 190 192 195 202 204 206 212 218
161 117 293 275 270 274 272 60 103 116 118 126 121 129 156 169 141 128 122 121 122 126 130 133 131 132 138 149 156 160 160 162 165 170 176 182 186 190 193 194 198 201 206 209 212 216 222 229 233
127 91 241 234 218 249 245 100 88 78 101 98 101 134 152 144 132 122 116 116 126 132 140 139 136 133 133 139 151 158 163 168 165 168 181 183 187 191 194 202 207 211 215 217 219 221 224 231 236
129 176 230 221 201 198 206 146 139 105 93 88 85 101 128 133 134 132 133 137 143 151 156 151 147 144 142 148 132 144 155 157 157 164 175 175 180 194 196 208 214 217 219 221 223 226 225 227 230
183 206 234 237 223 186 170 189 148 132 137 151 147 149 143 134 137 140 145 151 156 156 151 153 150 151 152 144 142 148 147 150 161 176 179 175 173 188 203 189 219 219 215 217 228 229 221 217 219
239 249 235 241 241 184 175 153 116 143 178 163 151 153 145 141 149 150 150 155 150 145 152 155 152 147 147 140 153 157 153 163 175 189 175 165 173 180 188 190 197 200 203 201 205 215 223 223 223
267 271 271 247 210 156 132 130 133 154 148 139 139 140 143 145 146 147 145 147 144 145 149 154 148 146 147 139 156 149 163 178 186 176 173 171 174 185 194 200 197 204 199 197 201 213 221 223 231
258 281 292 278 189 172 122 112 114 163 141 134 140 146 150 152 151 144 144 144 148 151 154 158 157 153 147 150 157 166 174 183 178 181 185 179 177 183 187 185 193 208 204 203 203 207 210 222 222
291 329 317 283 196 178 107 45 171 162 138 140 146 150 153 155 149 149 158 156 154 156 155 161 157 146 153 158 166 164 173 173 188 203 195 185 181 179 177 178 188 212 206 195 198 206 199 216 219
346 352 299 282 245 194 116 178 217 166 140 142 144 144 138 138 147 147 146 142 141 146 153 159 150 145 155 157 160 166 172 174 189 196 193 193 190 173 165 176 201 208 187 185 197 199 200 220 223
342 284 269 284 271 171 124 185 205 172 144 142 147 148 138 121 120 130 139 143 145 148 147 144 140 143 148 141 145 154 161 173 186 183 184 195 190 173 167 195 213 196 185 196 216 199 189 207 224
250 263 276 274 294 84 112 182 176 167 144 149 154 142 137 140 153 149 139 145 145 139 135 136 134 134 129 119 106 100 109 175 184 202 200 174 179 174 171 213 224 197 187 203 209 204 202 205 209
227 253 272 273 266 80 140 163 188 176 151 153 158 153 149 154 154 147 140 137 127 120 122 129 124 124 125 129 143 151 197 218 225 217 200 183 183 181 183 210 214 200 204 218 209 194 202 224 192
233 256 265 281 272 116 128 162 202 178 171 171 169 162 153 144 135 157 146 136 140 144 145 140 134 135 145 168 187 187 188 204 210 232 222 190 191 192 196 196 209 204 207 225 210 193 190 221 180
251 228 237 235 320 86 115 341 269 248 164 156 159 160 154 154 154 160 156 154 152 152 158 154 153 141 144 132 102 64 47 21 10 292 256 228 201 193 197 212 210 218 207 220 221 203 192 208 217
251 242 224 210 182 251 174 215 259 211 186 177 171 158 160 161 157 157 157 158 163 165 157 149 153 148 142 127 124 134 158 219 240 235 249 259 227 211 204 214 211 221 225 225 229 212 198 187 207
233 237 224 223 202 268 288 155 262 193 194 211 193 174 170 174 171 166 163 166 165 156 153 158 154 167 179 166 170 169 197 238 250 247 258 271 272 247 225 206 201 220 229 231 232 223 208 196 197
226 15 356 22 66 293 252 169 250 228 199 189 187 176 170 176 176 172 166 156 155 151 149 163 173 199 212 200 196 187 201 220 224 255 250 264 275 272 247 217 217 226 234 235 232 223 214 211 206
70 81 20 348 357 258 246 136 240 234 192 181 181 187 180 175 170 169 167 168 166 166 168 181 189 215 224 212 214 212 212 207 212 223 231 243 260 264 250 238 233 236 236 233 225 221 226 216 208
192 140 159 204 233 270 325 188 247 231 154 158 170 172 158 155 169 173 173 174 172 172 171 183 212 233 233 222 229 232 216 212 229 228 223 225 234 243 248 242 234 233 229 228 216 217 232 221 219
178 205 178 153 203 219 277 230 285 110 106 106 116 141 152 159 156 164 163 156 155 166 178 196 208 229 240 233 222 229 220 215 233 243 233 234 245 247 247 245 235 231 229 225 213 217 228 217 221
171 167 96 118 157 247 269 227 217 194 178 141 120 132 158 155 151 148 137 142 143 168 184 193 199 210 217 222 228 234 232 225 226 234 246 250 253 254 256 255 244 236 233 225 218 222 231 221 223
181 112 115 132 160 165 230 260 218 183 175 166 160 144 134 132 145 146 146 146 146 156 180 200 208 218 225 230 235 240 255 255 247 245 254 249 247 245 243 249 242 235 239 231 221 231 233 228 230
170 172 150 154 221 170 177 259 246 165 167 161 156 142 132 129 134 142 137 129 138 159 172 208 217 232 239 237 238 238 253 263 263 260 259 256 253 247 237 230 228 230 234 226 220 235 235 228 230